Regional Weather Roundup
Issued by NWS

Home | Current Version | Previous Version | Text Only | Print | Product List | Glossary Off
Versions: 1 2 3 4 5 6 7 8 9 10 11 12 13 14 15 16 17 18 19 20 21 22 23 24 25 26 27 28 29 30 31 32 33 34 35 36 37 38 39 40 41 42 43 44 45 46 47 48 49 50

299
ASUS45 KCYS 251410
RWRWY

WYOMING REGIONAL WEATHER ROUNDUP
NATIONAL WEATHER SERVICE CHEYENNE WY
800 AM MDT THU AUG 25 2016

NOTE:  "FAIR" INDICATES FEW OR NO CLOUDS BELOW 12,000 FEET
WITH NO SIGNIFICANT WEATHER AND/OR OBSTRUCTIONS TO VISIBILITY.

WYZ001-251500-
YELLOWSTONE NATIONAL PARK

CITY           SKY/WX    TMP DP  RH WIND       PRES   REMARKS
LK YELLOWSTONE   N/A     32  32 100 CALM      30.37F
W YELLOWSTONE  NOT AVBL

$$
WYZ002>013-054>058-071-098>099-251500-
NORTHERN WYOMING

CITY           SKY/WX    TMP DP  RH WIND       PRES   REMARKS
JACKSON        NOT AVBL
CODY           FAIR      48  43  81 CALM      30.32S
GREYBULL       FAIR      54  38  54 W3        30.29R
WORLAND        CLOUDY    53  47  79 S3        30.30R
SHERIDAN       FAIR      50  42  74 CALM      30.32R
BUFFALO        CLOUDY    50  38  63 NW3       30.34R
GILLETTE       FAIR      50  41  71 N6        30.31S
HULETT         FAIR      50  43  76 CALM      30.32R
NEWCASTLE      FAIR      48  45  87 NW6       30.30S

$$
WYZ014>020-022>026-101>103-251500-
CENTRAL WYOMING

CITY           SKY/WX    TMP DP  RH WIND       PRES   REMARKS
BIG PINEY      FAIR      43  34  70 SW3       30.34R
PINEDALE       PTSUNNY   43  32  65 NW6       30.35R
DUBOIS         CLOUDY    43  39  87 SE6       30.35S
LANDER         CLOUDY    50  44  80 CALM      30.33R
RIVERTON       CLOUDY    49  47  93 E5        30.34S
CASPER         CLOUDY    49  46  90 NE9       30.33S
DOUGLAS        CLOUDY    49  46  90 CALM      30.35S

$$
WYZ021-027>030-104>119-251500-
SOUTHERN WYOMING

CITY           SKY/WX    TMP DP  RH WIND       PRES   REMARKS
EVANSTON       FAIR      45  35  68 E13       30.30S
FORT BRIDGER   FAIR      45  37  73 NE6       30.34S
ROCK SPRINGS   NOT AVBL
DIXON          FAIR      43  35  72 CALM      30.32R
RAWLINS        CLOUDY    49  40  71 NE12      30.32R
SARATOGA       PTSUNNY   41  41 100 S3        30.32S
LARAMIE        FOG       42  42 100 S5        30.34R VSB 1/4
CHEYENNE       FAIR      47  42  83 N15G21    30.33R
TORRINGTON     CLOUDY    54  43  66 E7        30.32R
PINE BLUFFS    FAIR      50  46  87 N8        30.31R

$$




USA.gov is the U.S. government's official web portal to all federal, state and local government web resources and services.